Location: Cactus School
(34.5700°N, 118.0931°W)
Time: 20:08:39
(UTC-08:00)

A-11 Canister half - Pass Details

Date: 26 November 2019
Orbit: 1515 x 1685 km, 47.2° (Epoch: 05 December)

Event Time Altitude Azimuth Distance (km) Brightness Sun altitude
Rises 17:15:53 0° 269° (W) 4,859 13.2 -7.1°
Reaches altitude 10° 17:19:14 10° 276° (W) 3,894 12.3 -7.8°
Maximum altitude 17:28:41 44° 347° (NNW) 2,190 9.8 -9.6°
Enters shadow 17:37:49 12° 56° (NE) 3,817 10.5 -11.4°
